Tracking 29747 objects as of 10-Oct-2024
HD Live streaming from Space Station
objects crossing your sky now

THORAD AGENA D DEB

Track THORAD AGENA D DEB now!
10-day predictions


NORAD ID: 4687
Int'l Code: 1970-025BL
Perigee: 1,055.4 km
Apogee: 1,096.6 km
Inclination: 99.5 °
Period: 106.6 minutes
Semi major axis: 7447 km
RCS: 0.2719 m2 (medium)
Launch date: April 8, 1970
Source: United States (US)
Launch site: AIR FORCE WESTERN TEST RANGE (AFWTR)

Note: This is SATELLITE DEBRIS
Your satellite tracking list
Your tracking list is empty




NASA's NSSDC Master Catalog

Two Line Element Set (TLE):
1 04687U 70025BL  24283.69945435  .00000555  00000-0  92212-3 0  9997
2 04687  99.4921  83.2771 0027650  27.8369 343.6518 13.50920557681163
Source of the keplerian elements: AFSPC